FENGYUN 1C DEB

Satellite information

Favourite Embed

Satellite Type and Status

DEBRISIN ORBIT

Key statistics

Satellite FENGYUN 1C DEB at a glance.

Uptime

9610

Days in orbit

Revolutions

≈ 14.1

Per day

Orbit

SSO

Sun Synchronous Orbit

Inclination

99.4

Latest

Satellite identification and parameters

Extended collection of information and parameters for FENGYUN 1C DEB.

Object identification

Identified? True

Debris? True

Object name: FENGYUN 1C DEB

International designator: 1999-025EW

Object number (NORAD): 29852

Object ID (CCSDS): 29852

Country: PEOPLES REPUBLIC OF CHINA (PRC)

Current information (Y/N): Y

RCS size: SMALL

Orbital parameters

Period: 102.413 minutes

Inclination: 99.3742 deg

SMA: 7251.001 km

Apoapsis: 973.33 km

Periapsis: 772.401 km

RAAN: 248.8675 deg

Eccentricy: 0.01385527

Argument of periapsis: 77.0678 deg

Mean anomaly: 100.403 deg

Mean motion: 14.0606643 rev/day

Mean motion (dot): 0.0000511 rev/day2

B* drag term: 0.0028787473 1/REarth

Two-line elements (TLE)

Creation date: Aug. 31, 2025, 2:26 a.m.

Reference frame: TEME

Reference center: EARTH

Epoch: Aug. 30, 2025, 7:30 p.m. UTC

TLE line 0: 0 FENGYUN 1C DEB

TLE line 1: 1 29852U 99025EW 25242.81304661 .00005110 00000-0 28787-2 0 9996

TLE line 2: 2 29852 99.3742 248.8675 0138553 77.0678 100.4030 14.06066430945233

Live tracking on map

Real-time ground track for satellite FENGYUN 1C DEB.

In-orbit conjunctions

A list of the most updated potential collisions computed for object FENGYUN 1C DEB.

Target Orbit TCA Probability of collision Miss distance Type
FENGYUN 1C DEB SSO 2025-08-27 16:03:02 0.0001135653 782.0 (m) DEBRIS
FENGYUN 1C DEB SSO 2025-07-14 00:19:22 0.001545398 50.0 (m) DEBRIS
THORAD AGENA D DEB SSO 2024-11-13 02:12:49 0.0001405539 333.0 (m) DEBRIS

Associated space launch

Chinese polar orbiting meteorological satellite

FENGYUN 1C DEB was lifted into orbit during the mission ‘Long March 4B | Feng Yun 1C’, on board a Long March 4B space rocket.

The launch took place on May 10, 1999, 1:33 a.m. from Launch Complex 7.

For more information about the launch, click the button.

Launch to space Long March 4B | Feng Yun 1C
Long March 4B | Feng Yun 1C

Agency: N/A

Status: Launch Successful

Launch date: May 10, 1999, 1:33 a.m. UTC

Rocket: Long March 4B

Launch pad: Launch Complex 7

Location: Taiyuan Satellite Launch Center, People's Republic of China

...

Latest news about this satellite

There are no fresh news available about this satellite. Check back as we update our databases every day.


Newsletter sign-up

Weekly statistics, charts and insights to help you stay on top of the space industry.